Location: Clarion
(42.7316°N, 93.7330°W)
Time: 09:53:29
(UTC+00:00)

Cosmos 1763 Rocket - Pass Details

Date: 22 April 2026
Orbit: 728 x 774 km, 74.0° (Epoch: 17 May)

Event Time Altitude Azimuth Distance (km) Brightness Sun altitude
Exits shadow 08:52:54 64° 250° (WSW) 850 3.4 -24.0°
Maximum altitude 08:53:27 70° 292° (WNW) 820 3.5 -23.9°
Drops below altitude 10° 08:58:44 10° 16° (NNE) 2,328 6.8 -23.3°
Sets 09:01:09 0° 19° (NNE) 3,260 7.8 -23.0°
